When you browse on this site, cookies collect data to enhance your experience and personalize the content and advertising you see.
Visit our Privacy Policy to learn more. By continuing to use the site, you agree to this use of cookies and data.
  • In United Kingdom
  • List of Countries
  • For 7 days
  • Water Temperature
  • Weather Map
  • Weather Widgets
  • user-avatar
    Login

    Hourly Weather Ignatiki

    Today, 24 February, Monday

    Time Temperature Precipitation Wind Pressure Humidity
    00:00 0°C° 0 mm 4 mps 732 mmHg 85%
    01:00 -1°C° 0 mm 4 mps 731 mmHg 87%
    02:00 -1°C° 0 mm 4 mps 732 mmHg 90%
    03:00 -1°C° 0 mm 4 mps 732 mmHg 91%
    04:00 -1°C° 0 mm 4 mps 732 mmHg 92%
    05:00 -1°C° 0 mm 4 mps 732 mmHg 94%
    06:00 -1°C° 0 mm 4 mps 732 mmHg 92%
    07:00 -1°C° 0 mm 4 mps 733 mmHg 91%
    08:00 0°C° 0 mm 4 mps 734 mmHg 90%
    09:00 0°C° 0 mm 5 mps 734 mmHg 83%
    10:00 +1°C° 0 mm 5 mps 735 mmHg 76%
    11:00 +2°C° 0 mm 6 mps 735 mmHg 69%
    12:00 +2°C° 0 mm 6 mps 736 mmHg 65%
    13:00 +2°C° 0 mm 7 mps 737 mmHg 61%
    14:00 +2°C° 0 mm 8 mps 737 mmHg 57%
    15:00 +2°C° 0 mm 7 mps 738 mmHg 58%
    16:00 +1°C° 0 mm 6 mps 738 mmHg 59%
    17:00 +1°C° 0 mm 5 mps 739 mmHg 60%
    18:00 0°C° 0 mm 5 mps 739 mmHg 64%
    19:00 -1°C° 0 mm 4 mps 740 mmHg 67%
    20:00 -1°C° 0 mm 4 mps 740 mmHg 71%
    21:00 -1°C° 0 mm 4 mps 740 mmHg 72%
    22:00 -2°C° 0 mm 4 mps 741 mmHg 74%
    23:00 -2°C° 0 mm 4 mps 741 mmHg 75%

    Tomorrow, 25 February, Tuesday

    Time Temperature Precipitation Wind Pressure Humidity
    00:00 -1°C° 0 mm 3 mps 741 mmHg 78%
    01:00 -1°C° 0 mm 3 mps 741 mmHg 80%
    02:00 -2°C° 0 mm 2 mps 741 mmHg 82%
    03:00 -2°C° 0 mm 2 mps 740 mmHg 83%
    04:00 -2°C° 0 mm 2 mps 740 mmHg 84%
    05:00 -2°C° 0 mm 2 mps 739 mmHg 85%
    06:00 -2°C° 0 mm 2 mps 739 mmHg 84%
    07:00 -2°C° 0 mm 2 mps 739 mmHg 83%
    08:00 -2°C° 0 mm 2 mps 739 mmHg 82%
    09:00 -1°C° 0 mm 2 mps 738 mmHg 76%
    10:00 0°C° 0 mm 3 mps 738 mmHg 71%
    11:00 +1°C° 0 mm 3 mps 737 mmHg 65%
    12:00 0°C° 0 mm 4 mps 737 mmHg 67%
    13:00 +1°C° 0 mm 4 mps 736 mmHg 69%
    14:00 +1°C° 0 mm 4 mps 736 mmHg 71%
    15:00 0°C° 0.2 mm 5 mps 735 mmHg 79%
    16:00 0°C° 0.2 mm 5 mps 734 mmHg 88%
    17:00 -1°C° 0.2 mm 5 mps 734 mmHg 96%
    18:00 -1°C° 0.4 mm 5 mps 733 mmHg 96%
    19:00 -1°C° 0.4 mm 5 mps 732 mmHg 96%
    20:00 -1°C° 0.4 mm 5 mps 732 mmHg 96%
    21:00 0°C° 0.5 mm 5 mps 731 mmHg 96%
    22:00 0°C° 0.5 mm 4 mps 730 mmHg 96%
    23:00 +1°C° 0.5 mm 4 mps 730 mmHg 96%

    Day after tomorrow, 26 February, Wednesday

    Time Temperature Precipitation Wind Pressure Humidity
    00:00 +1°C° 0.4 mm 3 mps 730 mmHg 96%
    01:00 +1°C° 0.4 mm 3 mps 730 mmHg 96%
    02:00 +1°C° 0.4 mm 3 mps 729 mmHg 96%
    03:00 +1°C° 0.1 mm 2 mps 729 mmHg 95%
    04:00 +1°C° 0.1 mm 2 mps 729 mmHg 94%
    05:00 -1°C° 0.1 mm 2 mps 729 mmHg 94%
    06:00 -1°C° 0 mm 3 mps 729 mmHg 94%
    07:00 -1°C° 0 mm 3 mps 729 mmHg 95%
    08:00 -1°C° 0 mm 3 mps 729 mmHg 95%
    09:00 -1°C° 0 mm 4 mps 729 mmHg 89%
    10:00 0°C° 0 mm 4 mps 729 mmHg 83%
    11:00 +1°C° 0 mm 4 mps 729 mmHg 78%
    12:00 +1°C° 0 mm 5 mps 729 mmHg 74%
    13:00 +2°C° 0 mm 5 mps 729 mmHg 70%
    14:00 +3°C° 0 mm 5 mps 729 mmHg 66%
    15:00 +2°C° 0 mm 5 mps 729 mmHg 67%
    16:00 +3°C° 0 mm 4 mps 729 mmHg 69%
    17:00 +3°C° 0 mm 3 mps 729 mmHg 71%
    18:00 +2°C° 0 mm 3 mps 730 mmHg 75%
    19:00 +1°C° 0 mm 3 mps 730 mmHg 79%
    20:00 +1°C° 0 mm 2 mps 730 mmHg 83%
    21:00 0°C° 0 mm 3 mps 730 mmHg 84%
    22:00 0°C° 0 mm 3 mps 730 mmHg 86%
    23:00 0°C° 0 mm 3 mps 730 mmHg 87%

    27 February, Thursday

    Time Temperature Precipitation Wind Pressure Humidity
    00:00 0°C° 0 mm 3 mps 730 mmHg 87%
    01:00 0°C° 0 mm 3 mps 730 mmHg 87%
    02:00 +1°C° 0 mm 2 mps 730 mmHg 87%
    03:00 0°C° 0.1 mm 3 mps 730 mmHg 88%
    04:00 0°C° 0.1 mm 3 mps 729 mmHg 89%
    05:00 0°C° 0.1 mm 3 mps 729 mmHg 90%
    06:00 +1°C° 0.3 mm 2 mps 729 mmHg 92%
    07:00 +1°C° 0.3 mm 2 mps 729 mmHg 94%
    08:00 -1°C° 0.3 mm 2 mps 729 mmHg 96%
    09:00 +1°C° 0.7 mm 2 mps 729 mmHg 95%
    10:00 0°C° 0.7 mm 3 mps 729 mmHg 93%
    11:00 0°C° 0.7 mm 3 mps 729 mmHg 92%
    12:00 -1°C° 0.1 mm 4 mps 729 mmHg 86%
    13:00 0°C° 0.1 mm 4 mps 729 mmHg 80%
    14:00 0°C° 0.1 mm 5 mps 730 mmHg 74%
    15:00 0°C° 0 mm 4 mps 730 mmHg 74%
    16:00 -1°C° 0 mm 4 mps 730 mmHg 75%
    17:00 -1°C° 0 mm 4 mps 730 mmHg 75%
    18:00 -2°C° 0 mm 4 mps 730 mmHg 78%
    19:00 -2°C° 0 mm 4 mps 730 mmHg 80%
    20:00 -3°C° 0 mm 4 mps 730 mmHg 82%
    21:00 -3°C° 0 mm 4 mps 730 mmHg 82%
    22:00 -3°C° 0 mm 4 mps 731 mmHg 82%
    23:00 -4°C° 0 mm 4 mps 731 mmHg 82%

    28 February, Friday

    Time Temperature Precipitation Wind Pressure Humidity
    00:00 -4°C° 0 mm 4 mps 731 mmHg 84%
    01:00 -5°C° 0 mm 5 mps 731 mmHg 85%
    02:00 -5°C° 0 mm 5 mps 731 mmHg 87%
    03:00 -5°C° 0.2 mm 5 mps 731 mmHg 88%
    04:00 -5°C° 0.2 mm 5 mps 731 mmHg 88%
    05:00 -4°C° 0.2 mm 6 mps 731 mmHg 89%
    06:00 -5°C° 0 mm 6 mps 732 mmHg 87%
    07:00 -5°C° 0 mm 6 mps 732 mmHg 86%
    08:00 -5°C° 0 mm 6 mps 732 mmHg 84%
    09:00 -4°C° 0 mm 6 mps 732 mmHg 82%
    10:00 -4°C° 0 mm 6 mps 733 mmHg 79%
    11:00 -3°C° 0 mm 6 mps 733 mmHg 77%
    12:00 -3°C° 0 mm 7 mps 734 mmHg 75%
    13:00 -3°C° 0 mm 7 mps 734 mmHg 73%
    14:00 -2°C° 0 mm 7 mps 734 mmHg 71%
    15:00 -3°C° 0 mm 6 mps 735 mmHg 69%
    16:00 -3°C° 0 mm 6 mps 735 mmHg 67%
    17:00 -2°C° 0 mm 5 mps 735 mmHg 66%
    18:00 -4°C° 0 mm 5 mps 735 mmHg 67%
    19:00 -4°C° 0 mm 5 mps 736 mmHg 67%
    20:00 -4°C° 0 mm 4 mps 736 mmHg 68%
    21:00 -4°C° 0 mm 4 mps 736 mmHg 71%
    22:00 -4°C° 0 mm 4 mps 736 mmHg 73%
    23:00 -4°C° 0 mm 4 mps 736 mmHg 75%

    29 February, Saturday

    Time Temperature Precipitation Wind Pressure Humidity
    00:00 -5°C° 0 mm 4 mps 736 mmHg 75%
    01:00 -5°C° 0 mm 4 mps 736 mmHg 75%
    02:00 -5°C° 0 mm 4 mps 736 mmHg 75%
    03:00 -5°C° 0 mm 4 mps 736 mmHg 78%
    04:00 -5°C° 0 mm 4 mps 736 mmHg 81%
    05:00 -6°C° 0 mm 5 mps 736 mmHg 83%
    06:00 -5°C° 0 mm 4 mps 737 mmHg 85%
    07:00 -4°C° 0 mm 4 mps 737 mmHg 88%
    08:00 -4°C° 0 mm 4 mps 737 mmHg 90%
    09:00 -3°C° 0 mm 4 mps 737 mmHg 85%
    10:00 -3°C° 0 mm 4 mps 738 mmHg 81%
    11:00 -2°C° 0 mm 4 mps 738 mmHg 77%
    12:00 -2°C° 0 mm 5 mps 738 mmHg 72%
    13:00 -2°C° 0 mm 5 mps 738 mmHg 68%
    14:00 -2°C° 0 mm 5 mps 739 mmHg 64%
    15:00 -2°C° 0 mm 4 mps 739 mmHg 67%
    16:00 -1°C° 0 mm 3 mps 739 mmHg 70%
    17:00 -2°C° 0 mm 2 mps 739 mmHg 72%
    18:00 -2°C° 0 mm 2 mps 739 mmHg 76%
    19:00 -3°C° 0 mm 2 mps 740 mmHg 80%
    20:00 -3°C° 0 mm 2 mps 740 mmHg 84%
    21:00 -4°C° 0 mm 2 mps 740 mmHg 85%
    22:00 -4°C° 0 mm 2 mps 740 mmHg 87%
    23:00 -4°C° 0 mm 2 mps 740 mmHg 88%
    Show more